SCP
6 6 6 6 5 4 4 4 4 4 4 3 3 3 3 3 2 2 2 1 2 2 2 1 1 1 1 0 0 0 0 0 0 0 0 0 0 0 0 0 0 0 0
8 7 7 7 5 4 4 4 4 4 4 4 3 3 3 3 2 2 2 2 2 2 2 1 1 1 1 0 0 0 0 0 0 0 0 0 0 0 0 0 0 0 0
10 8 7 6 5 4 4 4 4 4 4 4 4 3 3 3 2 2 2 2 2 2 2 1 1 1 1 1 0 0 0 0 0 0 0 0 0 0 0 0 0 0 0
10 9 7 6 5 4 4 4 4 5 5 5 4 4 3 3 3 2 2 2 2 2 2 2 1 1 1 1 1 0 0 0 0 0 0 0 0 0 0 0 0 0 0
10 8 6 6 5 5 4 4 4 5 4 4 4 3 3 3 3 2 2 2 2 2 2 2 1 1 1 1 1 1 0 0 0 0 0 0 0 0 0 0 0 0 0
8 7 6 6 5 5 4 4 4 4 3 3 3 2 2 2 2 2 2 2 2 2 2 2 1 1 1 1 1 1 1 0 0 0 0 0 0 0 0 0 0 0 0
7 7 7 6 5 5 5 4 4 3 3 2 2 2 2 2 2 2 2 2 2 2 2 2 1 1 1 1 1 1 1 1 1 1 0 0 0 0 0 0 0 0 0
7 7 6 6 6 5 5 5 4 3 3 2 2 2 2 2 2 2 2 2 2 2 2 2 1 1 1 1 1 1 1 1 1 1 1 0 0 0 0 0 0 0 0
7 6 6 6 6 6 6 5 4 4 3 2 2 2 2 2 2 2 2 2 2 2 2 1 1 1 1 1 1 1 2 2 1 1 1 1 1 1 0 0 0 0 0
7 7 6 7 8 7 6 5 5 4 3 3 2 2 2 2 2 2 2 2 2 2 2 2 2 2 2 2 2 2 2 2 2 2 1 1 1 1 1 1 0 0 0
8 8 8 8 10 9 6 4 5 5 4 3 3 3 3 2 2 2 2 2 2 2 2 2 2 2 2 3 3 2 2 2 2 2 1 1 1 1 1 1 1 1 0
9 9 10 10 9 8 6 4 4 5 5 4 4 3 3 3 2 2 2 1 1 1 1 2 2 2 2 3 3 2 2 2 2 1 1 1 1 1 1 1 1 1 1
9 9 9 8 7 6 5 4 3 4 5 5 4 3 3 3 2 2 2 1 1 1 1 1 1 1 1 2 2 2 2 2 2 1 1 1 1 2 2 2 1 1 1
9 9 8 7 5 4 4 4 3 3 4 4 3 3 3 2 2 2 2 2 1 1 1 1 1 1 1 1 2 2 2 2 2 2 2 1 2 2 2 2 2 2 2
8 8 7 6 5 5 4 4 3 3 3 3 3 3 3 3 2 2 2 2 2 2 2 1 1 1 1 2 2 2 3 3 3 2 2 2 1 1 2 2 2 2 2
7 8 8 7 6 5 4 4 3 3 3 3 3 3 3 3 3 2 2 2 2 2 2 2 2 2 2 2 2 2 3 3 3 3 2 2 1 1 1 1 2 2 2
7 8 8 7 6 5 5 5 4 4 4 4 4 4 4 3 3 3 2 2 2 3 3 3 2 2 2 2 1 1 2 3 3 3 3 2 2 1 1 1 1 1 1
9 9 8 8 8 7 7 6 6 5 4 4 4 4 4 4 3 3 3 2 3 3 3 4 3 3 3 2 1 1 1 2 2 3 3 3 2 2 1 1 1 1 1
9 9 9 10 10 9 8 7 6 4 4 4 4 4 4 4 4 4 3 3 3 3 3 4 4 4 3 2 1 1 1 1 2 2 2 2 2 2 1 1 1 1 1
7 8 9 10 10 9 7 6 4 3 3 3 3 3 4 5 5 5 5 4 3 3 3 3 3 3 3 2 1 1 1 1 1 1 1 1 1 1 0 0 1 1 1
6 6 7 8 8 6 5 4 3 3 3 3 3 3 4 5 6 6 6 5 4 3 3 3 3 3 3 2 1 1 1 1 2 2 1 1 1 0 0 0 0 1 1
5 5 5 6 5 4 4 4 3 3 3 3 3 3 3 4 5 6 6 6 6 5 5 5 4 3 3 3 1 1 0 1 2 2 1 1 0 0 0 0 0 0 0
5 6 8 8 6 5 4 3 3 3 3 3 3 2 2 2 3 4 5 7 7 7 7 7 5 4 4 4 2 1 0 0 1 1 1 1 0 0 0 0 0 0 0
8 10 12 10 7 5 4 3 3 3 3 3 3 2 1 1 2 3 4 5 6 7 7 7 6 5 5 4 3 2 1 0 0 1 0 0 0 0 0 0 0 0 0
11 12 12 10 7 5 4 3 2 2 2 2 2 1 1 1 2 2 3 3 4 4 5 5 5 5 4 4 3 2 1 1 0 0 0 0 0 0 0 0 0 0 0
12 12 10 8 6 5 4 3 2 2 2 2 1 1 1 1 1 2 2 2 2 2 3 4 4 4 3 3 2 1 1 0 0 0 0 0 0 0 0 0 0 0 0
Wind_Speed
13 13 15 15 14 13 12 11 11 9 7 5 4 5 4 4 4 4 6 6 5 5 5 4 3 3 3 3 4 2 2 1 1 2 2 2 1 2 3 4 4 5 6
11 14 14 14 14 15 13 12 11 10 8 6 4 4 4 3 4 4 5 5 5 5 5 5 4 4 3 3 3 3 2 1 2 3 2 1 3 2 2 3 4 5 4
20 18 17 15 14 14 15 13 12 10 9 7 4 3 3 2 2 3 4 4 6 6 5 6 5 4 4 4 4 4 4 2 1 2 4 3 3 2 2 3 3 4 4
16 17 17 17 17 15 13 12 12 11 9 9 7 7 6 5 5 4 4 4 5 6 6 5 5 5 4 4 4 4 3 4 2 1 1 3 4 3 1 2 2 4 5
18 19 19 18 16 14 13 12 12 11 9 9 9 8 6 4 3 4 5 5 5 6 6 6 5 5 4 4 4 4 4 3 3 2 2 1 1 2 2 2 2 2 3
18 16 14 13 11 12 12 12 12 11 10 10 9 9 8 6 6 6 6 5 4 4 6 6 5 5 5 5 5 4 5 4 4 3 3 3 2 2 3 3 3 3 3
16 15 14 14 14 15 14 13 13 12 11 10 9 9 8 8 9 8 7 6 4 4 6 6 5 5 5 5 5 4 4 4 4 4 3 3 3 3 3 3 2 2 2
15 16 17 17 16 16 15 14 14 12 12 11 10 8 8 6 6 7 7 7 6 6 6 7 6 6 6 6 5 4 4 4 4 5 4 3 3 3 3 3 3 1 2
16 16 16 15 15 15 15 15 14 12 12 12 10 8 8 7 7 7 7 6 6 6 7 7 7 6 6 6 5 4 4 4 4 4 4 3 3 2 3 3 3 4 2
15 14 15 15 14 13 12 12 12 13 11 11 10 8 7 8 7 6 7 7 7 6 7 7 7 6 6 6 5 4 4 5 5 4 4 4 3 3 2 2 3 3 4
15 13 12 12 11 10 10 10 11 10 10 10 9 8 7 7 6 6 7 6 6 6 7 7 7 7 7 6 6 6 6 6 6 5 5 6 5 3 3 2 2 2 3
12 12 12 11 10 10 10 10 10 10 10 9 8 8 7 6 6 6 6 6 6 6 6 6 7 7 7 7 7 8 7 7 7 6 6 7 5 5 3 3 3 3 3
11 10 10 11 11 11 11 10 9 9 9 8 8 7 7 7 7 7 6 6 6 6 6 6 7 7 7 7 7 7 7 7 8 7 7 7 6 5 4 4 4 3 3
10 10 9 9 10 10 10 9 9 8 8 8 8 7 8 8 7 7 6 6 6 6 6 6 6 6 6 7 7 7 7 7 7 7 7 7 7 7 6 5 5 4 3
9 10 10 9 9 8 8 8 8 8 8 8 8 8 7 6 6 6 6 6 6 6 5 5 5 5 5 6 7 7 7 7 7 7 7 7 8 9 7 5 5 5 4
9 10 10 10 10 10 9 8 7 7 7 8 8 7 6 6 6 6 6 5 5 5 4 5 5 5 6 7 9 7 6 6 6 6 6 6 7 8 9 10 9 8 7
9 10 10 9 9 9 9 8 8 7 7 7 6 6 6 6 6 6 5 5 5 4 4 5 5 5 6 8 9 9 6 5 6 6 5 5 5 7 6 6 7 7 8
8 8 7 7 7 7 7 7 7 7 7 6 6 5 6 5 5 5 5 5 4 4 4 4 5 5 6 7 8 8 6 5 6 6 6 6 5 5 6 5 4 4 5
7 7 7 7 6 7 7 7 6 6 6 5 5 5 6 5 5 5 4 4 4 3 3 3 3 3 3 4 6 6 4 4 4 4 4 5 5 6 7 5 4 3 3
6 7 7 7 6 6 7 7 6 5 5 5 5 4 5 5 5 4 3 3 3 3 3 2 2 2 2 3 4 4 2 2 2 2 2 3 3 3 5 5 5 4 4
6 7 8 7 5 5 7 7 6 5 4 4 4 4 4 4 4 3 3 3 3 3 2 2 1 1 1 2 2 3 2 2 2 1 0 0 1 3 3 4 3 4 3
8 7 8 6 4 5 7 7 4 3 4 5 5 4 3 3 3 3 2 2 3 3 2 1 1 0 1 1 0 1 3 3 3 2 1 1 3 4 3 2 2 2 2
7 7 8 7 6 5 6 7 4 4 5 6 5 5 4 4 4 3 3 3 3 2 2 1 1 1 1 1 2 2 3 4 3 2 4 4 4 4 3 4 3 2 2
7 7 8 8 7 6 6 5 4 5 6 6 5 5 5 5 5 4 3 3 2 2 2 2 1 1 1 1 1 1 2 3 3 2 4 5 6 5 4 4 3 2 2
6 7 8 8 6 5 5 5 4 5 7 6 6 5 5 5 5 5 5 4 3 1 2 2 2 2 1 1 1 3 2 2 3 4 4 4 4 3 3 3 2 2 2
6 7 8 7 6 6 5 4 3 5 6 6 5 4 4 4 4 5 6 10 7 8 8 6 4 3 3 4 5 5 5 5 7 6 4 3 3 2 2 2 2 2 2
Wind_Direction
181 173 169 167 163 166 164 164 164 166 157 152 156 154 164 167 167 173 174 171 170 167 161 163 161 154 154 163 154 138 132 140 122 85 40 351 320 198 196 194 188 198 201
174 174 169 169 170 171 171 168 170 171 169 167 163 159 157 167 172 175 174 172 170 171 172 163 167 167 158 154 158 144 138 167 142 131 112 16 339 311 220 201 197 200 197
177 176 174 176 174 175 176 176 175 174 172 164 150 139 125 124 152 175 182 183 177 181 174 171 168 170 165 172 177 164 154 170 197 159 147 153 215 274 300 238 210 195 194
178 176 176 177 180 180 176 172 173 173 172 169 168 168 172 180 190 182 184 187 186 186 182 175 171 172 170 175 187 173 163 155 180 201 185 172 165 161 259 301 253 214 203
181 180 181 181 178 173 172 171 170 174 175 177 178 179 184 187 176 171 179 186 192 193 191 181 175 174 177 183 188 173 170 167 171 178 177 160 155 150 153 241 277 270 231
183 181 178 169 166 169 171 171 173 178 179 181 183 186 184 180 175 183 188 192 192 195 193 185 182 182 183 186 189 185 180 182 179 178 174 167 171 189 173 198 233 247 255
180 173 170 171 172 174 176 175 177 180 182 184 188 189 189 187 188 190 193 192 190 196 199 191 186 188 190 188 184 185 192 192 189 193 195 193 197 180 171 172 205 241 272
179 176 178 177 178 178 178 177 181 182 184 188 192 191 191 191 195 196 193 197 199 199 194 190 190 191 191 191 186 191 201 199 201 205 199 201 211 195 184 176 166 197 290
179 178 177 179 180 180 181 181 181 182 186 190 192 194 194 194 196 196 195 199 201 200 195 193 194 197 195 192 187 198 205 201 205 210 208 209 216 204 199 182 172 169 200
178 177 177 180 181 181 178 177 180 185 185 189 194 198 198 195 194 191 197 199 199 198 191 196 197 198 198 195 193 199 202 201 213 212 209 216 217 215 205 191 190 180 178
174 174 174 173 169 164 168 175 181 181 184 188 192 195 193 192 190 193 198 196 194 193 194 195 197 200 201 199 198 210 205 208 220 220 214 223 217 213 212 199 189 186 171
166 167 165 161 160 163 168 178 182 182 184 185 186 193 190 189 195 199 198 191 192 194 194 193 197 205 207 203 202 213 214 212 218 221 219 227 221 217 213 200 204 204 195
154 156 161 163 167 170 172 178 179 182 180 178 183 190 190 193 200 202 196 191 193 197 197 195 200 207 207 206 209 212 216 216 218 218 218 223 214 220 217 207 208 214 215
152 153 158 165 169 170 171 174 177 177 176 178 185 195 198 197 199 198 194 193 193 196 200 202 207 211 211 211 211 213 218 221 223 222 219 218 211 215 214 214 213 209 209
151 155 159 165 167 168 172 174 171 172 175 177 186 197 199 192 188 190 193 190 193 199 201 204 209 209 212 218 216 218 221 221 225 227 224 220 215 212 210 212 209 203 206
155 155 158 159 165 170 172 171 170 170 168 175 186 188 184 181 184 188 188 187 193 198 196 204 210 216 226 228 221 218 222 220 221 227 229 228 222 221 219 219 211 199 199
160 156 157 162 166 169 167 168 169 164 166 173 177 177 177 183 190 190 186 189 194 192 198 208 210 222 236 230 227 221 217 218 221 222 222 229 228 220 219 221 223 220 216
152 148 149 150 154 155 154 152 150 155 161 167 174 176 174 179 180 180 188 194 194 194 201 209 216 226 243 238 236 229 225 224 225 224 221 221 228 221 206 204 207 225 231
136 136 138 142 141 148 148 142 145 150 154 163 168 170 169 172 174 181 192 191 188 198 200 199 209 221 251 250 241 228 225 228 229 232 229 219 222 221 199 184 191 216 252
114 120 121 115 125 138 136 133 137 140 152 164 166 166 164 165 173 184 183 175 172 183 179 183 200 209 238 257 245 223 208 211 221 241 246 228 216 213 189 184 183 200 231
97 101 103 105 120 130 126 127 129 143 157 146 139 141 147 154 160 157 153 147 151 147 146 151 157 183 245 259 242 203 173 178 157 142 268 293 155 163 170 176 184 203 205
93 101 101 98 99 110 115 114 120 133 124 118 115 116 115 130 132 129 132 129 134 135 139 132 112 41 29 7 346 147 155 145 127 135 135 99 94 98 111 141 146 150 140
92 92 96 93 80 84 105 112 110 110 109 104 101 98 90 80 86 103 113 111 119 127 131 126 118 67 41 34 62 106 128 129 123 113 102 92 89 89 81 80 90 98 101
89 92 94 92 84 77 83 92 98 105 106 104 100 96 92 84 75 72 77 89 102 127 127 123 126 100 55 38 57 90 117 120 117 106 88 82 76 77 71 64 64 71 87
83 89 94 94 89 85 84 85 90 101 101 102 103 100 97 97 87 74 60 65 50 63 133 138 139 128 128 275 129 124 121 134 134 117 88 75 71 67 58 58 62 64 64
86 87 86 89 89 87 82 79 87 107 111 105 103 104 106 103 102 98 79 57 63 63 66 69 86 75 81 75 89 102 104 106 113 106 92 87 84 85 77 69 55 50 51